Temp
61 62 62 61 60 61 61 61 61 61 61 62 62 62 61 61 56 59 60 56 55 52
61 59 58 58 59 60 59 60 60 61 61 62 61 61 60 58 57 55 57 55 53 53
59 59 58 58 58 58 58 59 59 60 60 60 60 60 58 54 52 52 53 54 53 56
56 54 55 56 56 57 58 58 58 58 56 57 58 58 51 52 51 51 51 52 54 58
51 52 53 54 51 54 55 56 54 53 52 53 53 53 54 51 52 52 53 59 60 60
52 53 53 51 51 49 51 54 54 55 52 51 53 53 54 53 54 52 56 58 58 59
52 53 52 51 51 52 49 48 54 52 53 56 57 58 57 57 57 57 57 56 58 59
51 51 49 51 49 50 52 51 51 52 56 57 56 52 52 52 56 56 58 58 59 59
52 49 49 48 51 49 49 49 51 51 52 51 51 47 49 53 56 56 55 56 58 59
52 48 48 51 52 51 49 53 51 50 51 52 52 47 47 49 56 53 51 53 54 53
54 49 48 50 49 49 49 49 49 51 52 51 50 46 46 48 51 50 49 49 49 49
54 49 51 48 47 47 48 48 48 48 48 47 48 45 45 48 49 49 48 49 49 51
52 53 52 49 48 49 49 49 49 50 50 49 49 45 44 48 50 50 49 51 50 47
53 51 51 50 49 51 53 53 51 51 52 51 48 49 44 45 58 58 58 51 58 58
MSLP
1024.52 1024.24 1023.91 1023.59 1023.27 1022.71 1022.38 1022.02 1021.72 1021.32 1021.05 1020.94 1020.82 1020.61 1020.55 1020.44 1020.49 1020.45 1020.62 1021.04 1021.42 1021.52
1024.67 1024.45 1024.17 1023.93 1023.62 1023.09 1022.63 1022.12 1021.58 1021.25 1021.05 1020.92 1020.84 1020.76 1020.52 1020.50 1020.51 1020.58 1020.73 1021.16 1021.41 1021.45
1024.93 1024.74 1024.50 1024.18 1023.74 1023.28 1022.75 1022.33 1021.85 1021.48 1021.31 1021.24 1021.11 1020.96 1021.00 1021.16 1021.04 1020.98 1021.17 1021.30 1021.34 1021.31
1025.31 1025.12 1024.75 1024.38 1024.01 1023.43 1022.95 1022.47 1022.18 1022.05 1021.95 1021.80 1021.66 1021.60 1021.80 1021.80 1021.65 1021.49 1021.42 1021.25 1021.17 1020.83
1025.63 1025.32 1024.88 1024.45 1024.28 1023.67 1023.19 1023.02 1022.98 1022.81 1022.53 1022.49 1022.38 1022.26 1022.18 1022.15 1021.96 1021.79 1021.61 1021.03 1020.79 1020.67
1025.83 1025.40 1025.06 1024.88 1024.53 1024.21 1023.81 1023.55 1023.18 1022.94 1022.90 1022.86 1022.61 1022.44 1022.37 1022.32 1022.12 1021.95 1021.55 1021.30 1021.02 1020.92
1026.04 1025.72 1025.35 1025.06 1024.71 1024.37 1024.21 1023.92 1023.56 1023.41 1023.15 1022.72 1022.51 1022.42 1022.28 1022.08 1021.91 1021.69 1021.62 1021.56 1021.28 1021.09
1026.34 1025.94 1025.61 1025.17 1024.91 1024.51 1024.11 1024.09 1023.93 1023.58 1023.03 1022.76 1022.73 1022.93 1022.67 1022.38 1021.92 1021.66 1021.41 1021.38 1021.27 1021.15
1026.34 1025.97 1025.63 1025.36 1025.09 1024.88 1024.64 1024.35 1024.09 1023.82 1023.59 1023.51 1023.35 1023.36 1022.89 1022.40 1022.04 1021.84 1021.70 1021.53 1021.43 1021.27
1026.35 1026.21 1025.89 1025.51 1025.14 1024.93 1024.84 1024.44 1024.30 1024.18 1023.97 1023.64 1023.49 1023.42 1023.09 1022.72 1022.33 1022.26 1022.26 1022.05 1021.77 1021.71
1026.58 1026.50 1026.22 1025.86 1025.59 1025.32 1025.08 1024.87 1024.62 1024.32 1024.12 1023.95 1023.88 1023.66 1023.38 1023.00 1022.69 1022.57 1022.48 1022.38 1022.24 1022.11
1026.96 1026.77 1026.38 1026.23 1025.95 1025.66 1025.34 1025.09 1024.86 1024.69 1024.48 1024.28 1024.11 1023.90 1023.58 1023.17 1022.99 1022.81 1022.75 1022.67 1022.57 1022.33
1027.40 1027.00 1026.57 1026.47 1026.29 1025.92 1025.57 1025.35 1025.11 1024.85 1024.63 1024.50 1024.24 1024.18 1023.83 1023.32 1023.18 1022.90 1022.94 1022.89 1022.77 1022.73
1027.44 1027.17 1026.87 1026.68 1026.31 1025.93 1025.60 1025.35 1025.13 1024.83 1024.72 1024.51 1024.50 1024.27 1024.08 1023.59 1022.99 1022.68 1022.50 1022.87 1022.48 1022.54
Wind_Speed
8 7 8 9 9 8 7 8 9 8 8 5 6 5 6 4 4 5 1 3 3 2
8 9 9 10 9 7 7 6 8 7 8 6 6 7 7 6 5 1 3 5 4 2
8 8 8 8 9 9 8 9 10 9 8 7 8 9 10 8 6 6 2 2 2 3
9 9 8 7 8 9 9 7 8 8 8 8 8 8 6 6 5 5 4 1 5 6
6 6 8 8 8 9 7 7 7 7 8 7 7 7 6 5 4 4 4 4 3 3
10 10 11 10 7 6 8 8 7 7 6 5 4 5 4 5 4 4 5 6 4 4
10 10 9 8 8 7 4 6 6 6 5 6 8 7 8 7 6 5 3 3 3 2
8 8 7 9 8 8 6 3 6 7 6 7 7 7 7 5 5 3 1 1 2 3
9 8 9 6 8 7 7 8 7 7 7 6 5 10 8 7 5 5 5 4 4 3
10 9 9 9 7 7 7 6 7 7 6 7 7 10 8 7 5 5 4 4 4 4
9 7 8 9 9 9 7 7 6 7 8 7 7 8 6 4 4 4 5 4 3 3
10 8 10 9 8 6 6 5 5 3 4 4 5 9 7 4 3 5 5 5 7 5
8 9 9 7 7 6 5 5 4 6 6 7 6 10 8 4 3 4 4 6 5 8
8 7 7 7 5 5 6 6 7 7 7 7 6 7 8 7 7 5 6 3 4 4
Wind_Direction
334 336 331 338 333 327 326 328 329 333 325 343 332 344 350 349 306 278 288 194 189 192
340 338 342 343 337 332 326 325 326 338 348 7 2 6 356 348 303 278 175 145 188 236
353 351 344 342 344 337 332 338 345 356 22 22 32 29 20 26 23 53 77 159 214 260
360 350 344 344 342 344 332 349 2 17 32 25 33 36 28 17 25 43 25 333 234 240
349 342 343 346 358 346 357 28 36 34 40 28 19 17 18 4 7 24 354 350 349 337
1 350 359 351 14 33 1 17 18 26 33 14 1 8 352 334 331 338 336 343 338 359
10 4 5 1 7 9 15 10 13 19 5 2 0 353 340 327 323 314 321 333 342 314
357 1 355 5 5 8 20 26 7 10 2 12 15 1 343 336 354 350 354 28 336 323
3 355 353 357 6 21 19 16 12 23 13 19 8 359 27 359 36 24 15 360 354 336
11 357 3 14 27 23 22 25 38 27 17 26 11 2 11 5 21 28 19 11 21 19
14 9 8 22 18 18 11 17 21 22 20 19 20 3 3 11 40 33 33 30 24 39
14 19 22 20 11 3 6 15 20 15 10 13 29 15 18 27 37 65 54 48 46 52
12 14 24 17 9 2 13 20 25 37 27 24 29 21 9 36 68 78 60 53 53 46
13 14 17 22 6 13 37 43 41 50 42 52 32 37 17 5 65 67 82 65 65 61